EW2974 Weather Reports


Display with metric or nautical units.
time (UTC)temp
F
wind
direction
speed
MPH
gust
MPH
rain 1hr
in
rain 24hr
in
rain mn
in
humidity
%
barometer
mb
20260509022405 50 220 0.0 5.0 0.04 0.25 0.25 94 1009.6
20260509021905 50 239 0.0 0.0 0.05 0.25 0.25 94 1009.5
20260509021404 50 239 0.0 0.0 0.05 0.25 0.25 94 1009.6
20260509020904 50 239 0.0 0.0 0.06 0.25 0.25 93 1009.6
20260509020404 50 239 0.0 0.0 0.06 0.25 0.25 93 1009.8
20260509015905 50 239 0.0 0.0 0.06 0.24 0.24 93 1009.7
20260509015405 50 252 0.0 0.0 0.06 0.24 0.24 93 1009.9
20260509014904 50 272 0.0 0.0 0.07 0.24 0.24 93 1010.0
20260509014404 51 273 0.0 0.0 0.06 0.23 0.23 93 1010.0
20260509013404 50 274 0.0 0.0 0.06 0.22 0.22 93 1009.9
20260509012405 50 274 0.0 0.0 0.06 0.21 0.21 93 1009.9
20260509011905 50 274 0.0 0.0 0.05 0.20 0.20 93 1010.0
20260509011404 50 274 0.0 0.0 0.05 0.20 0.20 93 1009.8
20260509010904 50 275 0.0 0.0 0.05 0.19 0.19 93 1009.9
20260509010406 50 275 0.0 0.0 0.05 0.19 0.19 93 1010.0
20260509005905 50 275 0.0 0.0 0.04 0.18 0.18 93 1009.9
20260509005404 51 275 0.0 0.0 0.04 0.18 0.18 93 1009.8
20260509004904 51 275 0.0 0.0 0.03 0.17 0.17 93 1009.8
20260509004405 51 275 0.0 0.0 0.03 0.17 0.17 93 1009.7
20260509003905 51 275 0.0 0.0 0.03 0.17 0.17 92 1009.7
20260509002905 51 275 0.0 0.0 0.01 0.15 0.15 92 1009.5
20260509002404 51 275 0.0 0.0 0.01 0.15 0.15 92 1009.4
20260509001905 51 275 0.0 0.0 0.01 0.15 0.15 92 1009.2
20260509001405 51 275 0.0 0.0 0.02 0.15 0.15 92 1009.2
20260509000904 51 275 0.0 0.0 0.01 0.14 0.14 92 1009.0
20260509000405 51 275 0.0 0.0 0.01 0.14 0.14 92 1009.1
20260508235904 51 275 0.0 0.0 0.01 0.14 0.14 92 1008.9
20260508235405 51 275 0.0 0.0 0.01 0.14 0.14 92 1009.0
20260508234905 51 275 0.0 0.0 0.02 0.14 0.14 92 1009.0
20260508234404 51 275 0.0 0.0 0.02 0.14 0.14 92 1009.1
20260508233904 51 275 0.0 0.0 0.02 0.14 0.14 91 1009.2
20260508233405 51 275 0.0 0.0 0.02 0.14 0.14 91 1009.1
20260508232904 51 275 0.0 0.0 0.02 0.14 0.14 91 1009.0
20260508232404 51 275 0.0 0.0 0.02 0.14 0.14 91 1009.0
20260508231904 51 275 0.0 0.0 0.02 0.14 0.14 91 1009.1
20260508231405 51 275 0.0 0.0 0.02 0.13 0.13 91 1009.1
20260508230904 51 275 0.0 0.0 0.02 0.13 0.13 91 1009.2
20260508230405 51 275 0.0 0.0 0.02 0.13 0.13 91 1009.3
20260508225904 51 275 0.0 0.0 0.02 0.13 0.13 91 1009.3
20260508225405 51 275 0.0 0.0 0.02 0.13 0.13 90 1009.3
20260508224904 51 275 0.0 0.0 0.01 0.12 0.12 90 1009.3
20260508224404 51 275 0.0 1.0 0.02 0.12 0.12 90 1009.2
20260508223904 51 275 0.0 1.0 0.02 0.12 0.12 90 1008.9
20260508223404 51 275 0.0 0.0 0.03 0.12 0.12 90 1008.7
20260508222904 51 277 0.0 0.0 0.03 0.12 0.12 90 1008.8
20260508222405 51 277 0.0 0.0 0.03 0.12 0.12 90 1008.9
20260508221904 51 277 0.0 0.0 0.03 0.12 0.12 90 1008.9
20260508221404 51 277 0.0 0.0 0.03 0.11 0.11 89 1009.1
20260508220404 51 277 0.0 0.0 0.04 0.11 0.11 89 1009.3
20260508215904 51 277 0.0 0.0 0.04 0.11 0.11 87 1009.4
20260508215405 51 277 0.0 0.0 0.04 0.11 0.11 86 1009.3
20260508214905 51 277 0.0 0.0 0.04 0.11 0.11 86 1009.3
20260508213904 52 277 1.0 5.0 0.03 0.10 0.10 85 1009.4
20260508212904 52 291 0.0 0.0 0.02 0.09 0.09 84 1009.5
20260508212404 52 291 0.0 0.0 0.02 0.09 0.09 84 1009.5
20260508211904 52 291 0.0 0.0 0.02 0.09 0.09 83 1009.7
20260508211405 53 271 0.0 1.0 0.01 0.08 0.08 81 1009.9
20260508210404 54 236 0.0 12.0 0.00 0.07 0.07 78 1009.9
20260508205404 55 263 1.0 8.0 0.00 0.07 0.07 74 1009.8
20260508204905 55 267 2.0 9.0 0.00 0.07 0.07 72 1009.9
20260508204405 55 263 0.0 8.0 0.00 0.07 0.07 71 1009.9
20260508203404 56 205 3.0 16.0 0.00 0.07 0.07 69 1009.8
20260508202904 56 237 3.0 12.0 0.00 0.07 0.07 68 1009.9
20260508202404 56 288 10.0 17.0 0.00 0.07 0.07 67 1009.9
20260508201904 57 272 1.0 9.0 0.00 0.07 0.07 69 1009.7
20260508200904 57 266 3.0 12.0 0.00 0.07 0.07 68 1009.7
20260508200404 57 246 0.0 1.0 0.00 0.07 0.07 70 1009.9
20260508195904 57 262 1.0 8.0 0.00 0.07 0.07 70 1009.7
20260508195406 57 276 6.0 18.0 0.00 0.07 0.07 68 1009.7
20260508194405 58 208 0.0 12.0 0.00 0.07 0.07 69 1009.5
20260508192904 59 243 1.0 14.0 0.00 0.07 0.07 68 1009.7
20260508192405 59 262 3.0 12.0 0.00 0.07 0.07 67 1009.7
20260508191904 60 240 4.0 12.0 0.00 0.07 0.07 64 1009.7
20260508191405 60 238 2.0 17.0 0.00 0.07 0.07 67 1009.7
20260508190904 59 213 4.0 21.0 0.00 0.07 0.07 70 1009.8
20260508190404 58 286 6.0 17.0 0.00 0.07 0.07 68 1010.1
20260508185904 58 239 7.0 22.0 0.00 0.07 0.07 69 1010.1
20260508185404 58 221 5.0 16.0 0.01 0.07 0.07 69 1010.2
20260508184905 58 275 3.0 12.0 0.01 0.07 0.07 73 1010.1
20260508184404 57 257 2.0 9.0 0.02 0.07 0.07 72 1010.2
20260508183905 57 244 2.0 8.0 0.02 0.07 0.07 74 1010.2
20260508183405 56 260 4.0 12.0 0.02 0.07 0.07 75 1010.4
20260508182904 56 263 3.0 6.0 0.02 0.07 0.07 76 1010.3
20260508182404 55 255 2.0 8.0 0.02 0.07 0.07 79 1010.4
20260508181905 55 271 1.0 6.0 0.02 0.07 0.07 80 1010.4
20260508181404 54 277 0.0 0.0 0.02 0.07 0.07 82 1010.5
20260508180904 54 274 0.0 1.0 0.02 0.07 0.07 81 1010.7
20260508180404 54 292 0.0 1.0 0.02 0.07 0.07 82 1010.7
20260508175904 54 275 1.0 6.0 0.02 0.07 0.07 78 1010.7
20260508174404 58 229 1.0 6.0 0.00 0.05 0.05 66 1010.4
20260508173904 58 263 1.0 5.0 0.00 0.05 0.05 66 1010.3
20260508173404 58 265 1.0 8.0 0.00 0.05 0.05 67 1010.3
20260508172905 58 261 2.0 6.0 0.00 0.05 0.05 64 1010.2
20260508171904 58 265 0.0 5.0 0.00 0.05 0.05 65 1010.3
20260508171405 58 254 2.0 5.0 0.00 0.05 0.05 64 1010.4
20260508170904 58 189 3.0 6.0 0.00 0.05 0.05 64 1010.3
20260508170405 58 261 4.0 9.0 0.00 0.05 0.05 62 1010.6
20260508165904 58 261 7.0 16.0 0.00 0.05 0.05 61 1010.7
20260508165405 59 252 4.0 6.0 0.00 0.05 0.05 63 1010.4
20260508164904 59 261 6.0 12.0 0.00 0.05 0.05 60 1010.5
20260508164405 59 263 7.0 14.0 0.00 0.05 0.05 60 1010.6
20260508163904 59 267 4.0 9.0 0.00 0.05 0.05 62 1010.6
20260508163404 58 265 7.0 17.0 0.00 0.05 0.05 62 1010.7
20260508162905 58 233 7.0 25.0 0.00 0.05 0.05 63 1010.8
20260508162405 58 255 5.0 9.0 0.00 0.05 0.05 62 1010.9
20260508161904 58 258 0.0 3.0 0.00 0.05 0.05 64 1011.1
20260508160904 59 263 8.0 9.0 0.00 0.05 0.05 60 1011.0
20260508160404 59 265 3.0 6.0 0.00 0.05 0.05 61 1011.1
20260508155904 59 270 6.0 12.0 0.00 0.05 0.05 63 1011.1
20260508155404 58 237 2.0 9.0 0.00 0.05 0.05 64 1011.1
20260508154905 57 271 2.0 8.0 0.00 0.05 0.05 64 1011.3
20260508154404 57 263 1.0 3.0 0.00 0.05 0.05 65 1011.3
20260508153904 57 261 1.0 5.0 0.00 0.05 0.05 63 1011.3
20260508152905 57 262 8.0 13.0 0.00 0.05 0.05 63 1011.3
20260508152405 57 267 5.0 8.0 0.00 0.05 0.05 64 1011.4
20260508151904 57 254 6.0 9.0 0.00 0.05 0.05 62 1011.3
20260508151405 57 257 2.0 16.0 0.00 0.05 0.05 65 1011.2
20260508150904 57 154 4.0 9.0 0.00 0.05 0.05 67 1011.2
20260508150405 57 179 5.0 12.0 0.00 0.05 0.05 69 1011.2
20260508145904 56 179 5.0 12.0 0.00 0.05 0.05 71 1011.3
20260508145405 55 264 6.0 12.0 0.00 0.05 0.05 68 1011.4
20260508144904 55 203 1.0 5.0 0.00 0.05 0.05 73 1011.4
20260508144405 54 255 0.0 3.0 0.00 0.05 0.05 76 1011.5
20260508143904 53 146 1.0 3.0 0.00 0.05 0.05 79 1011.5
20260508142905 51 298 0.0 0.0 0.03 0.05 0.05 79 1011.8
20260508142404 51 298 0.0 1.0 0.03 0.05 0.05 84 1011.7
20260508141904 50 298 0.0 0.0 0.03 0.05 0.05 88 1011.8
20260508141405 50 298 0.0 0.0 0.03 0.05 0.05 89 1011.9
20260508140404 49 298 0.0 0.0 0.03 0.05 0.05 90 1011.8
20260508135904 49 298 0.0 0.0 0.03 0.05 0.05 89 1011.9
20260508135405 49 298 0.0 0.0 0.03 0.05 0.05 89 1011.9
20260508134904 49 298 0.0 0.0 0.03 0.05 0.05 88 1012.2
20260508134405 49 298 0.0 0.0 0.03 0.05 0.05 88 1012.3
20260508133404 50 298 0.0 0.0 0.03 0.05 0.05 84 1012.3
20260508132905 50 298 0.0 0.0 0.00 0.02 0.02 82 1012.4
20260508132404 50 298 0.0 0.0 0.00 0.02 0.02 80 1012.1
20260508131904 50 298 0.0 0.0 0.00 0.02 0.02 82 1011.7
20260508131404 50 298 0.0 0.0 0.00 0.02 0.02 82 1011.9
20260508130904 49 298 0.0 0.0 0.00 0.02 0.02 86 1011.9
20260508130405 49 298 0.0 0.0 0.00 0.02 0.02 89 1011.9
20260508125904 48 298 0.0 0.0 0.00 0.02 0.02 89 1012.0
20260508125404 48 298 0.0 0.0 0.00 0.02 0.02 89 1012.0
20260508124905 48 298 0.0 0.0 0.00 0.02 0.02 89 1012.0
20260508124405 48 298 0.0 0.0 0.00 0.02 0.02 89 1012.0
20260508123905 47 298 0.0 0.0 0.00 0.02 0.02 89 1012.0
20260508122905 47 298 0.0 0.0 0.00 0.02 0.02 90 1011.7
20260508122405 47 298 0.0 0.0 0.00 0.02 0.02 90 1011.6
20260508121904 46 298 0.0 0.0 0.00 0.02 0.02 91 1011.5
20260508121404 46 249 0.0 0.0 0.02 0.02 0.02 91 1011.5
20260508120904 46 249 0.0 0.0 0.02 0.02 0.02 91 1011.5
20260508120404 45 249 0.0 0.0 0.02 0.02 0.02 90 1011.4
20260508115904 45 249 0.0 0.0 0.02 0.02 0.02 90 1011.3
20260508115404 45 249 0.0 0.0 0.02 0.02 0.02 89 1011.1
20260508114904 45 249 0.0 0.0 0.02 0.02 0.02 89 1011.0
20260508114405 45 249 0.0 0.0 0.02 0.02 0.02 89 1011.2
20260508113904 44 249 0.0 0.0 0.02 0.02 0.02 88 1011.4
20260508113405 44 249 0.0 0.0 0.02 0.02 0.02 88 1011.5
20260508112904 44 249 0.0 0.0 0.02 0.02 0.02 88 1011.4
20260508111904 44 239 0.0 0.0 0.02 0.02 0.02 86 1011.5
20260508111404 43 240 0.0 0.0 0.00 0.00 0.00 87 1011.7
20260508110904 43 240 0.0 0.0 0.00 0.00 0.00 86 1011.4
20260508110404 43 240 0.0 0.0 0.00 0.00 0.00 85 1011.3
20260508105904 43 240 0.0 0.0 0.00 0.00 0.00 85 1011.2
20260508104904 43 240 0.0 0.0 0.00 0.00 0.00 83 1011.0
20260508104405 43 240 0.0 0.0 0.00 0.00 0.00 84 1011.1
20260508103904 43 240 0.0 0.0 0.00 0.00 0.00 83 1011.0
20260508102904 43 240 0.0 0.0 0.00 0.00 0.00 81 1010.9
20260508101904 44 239 0.0 0.0 0.00 0.00 0.00 81 1011.0
20260508101405 44 239 0.0 0.0 0.00 0.00 0.00 80 1011.0
20260508100904 44 239 0.0 0.0 0.00 0.00 0.00 80 1011.0
20260508095904 44 239 0.0 0.0 0.00 0.00 0.00 79 1011.1
20260508095404 44 239 0.0 0.0 0.00 0.00 0.00 78 1011.2
20260508094904 45 239 0.0 0.0 0.00 0.00 0.00 78 1011.1
20260508094405 45 239 0.0 0.0 0.00 0.00 0.00 78 1011.0
20260508093405 45 239 0.0 0.0 0.00 0.00 0.00 77 1011.0
20260508092904 45 241 0.0 0.0 0.00 0.00 0.00 77 1011.0
20260508092404 46 241 0.0 0.0 0.00 0.00 0.00 77 1011.0
20260508091904 46 241 0.0 0.0 0.00 0.00 0.00 77 1011.1
20260508091404 46 241 0.0 0.0 0.00 0.00 0.00 76 1011.1
20260508090904 46 241 0.0 0.0 0.00 0.00 0.00 76 1011.2
20260508090404 46 241 0.0 0.0 0.00 0.00 0.00 76 1011.2
20260508085904 46 241 0.0 0.0 0.00 0.00 0.00 76 1011.2
20260508085404 47 241 0.0 0.0 0.00 0.00 0.00 75 1011.1
20260508084904 47 241 0.0 0.0 0.00 0.00 0.00 75 1011.1
20260508084404 47 241 0.0 0.0 0.00 0.00 0.00 74 1011.2
20260508083904 47 240 0.0 0.0 0.00 0.00 0.00 75 1011.2
20260508083404 47 240 0.0 0.0 0.00 0.00 0.00 75 1011.2
20260508082904 47 247 0.0 0.0 0.00 0.00 0.00 75 1011.2
20260508081904 47 263 0.0 0.0 0.00 0.00 0.00 75 1011.3
20260508081404 47 259 0.0 0.0 0.00 0.00 0.00 76 1011.3
20260508080905 47 240 2.0 3.0 0.00 0.00 0.00 76 1011.3
20260508080404 46 266 3.0 6.0 0.00 0.00 0.00 76 1011.2
20260508075904 45 200 0.0 3.0 0.00 0.00 0.00 78 1011.2
20260508075404 44 222 0.0 3.0 0.00 0.00 0.00 80 1011.2
20260508074904 44 251 0.0 3.0 0.00 0.00 0.00 83 1011.1
20260508074404 44 250 0.0 0.0 0.00 0.00 0.00 83 1011.2
20260508073905 43 250 0.0 0.0 0.00 0.00 0.00 83 1011.3
20260508073405 43 250 0.0 0.0 0.00 0.00 0.00 84 1011.3
20260508072904 43 250 0.0 0.0 0.00 0.00 0.00 84 1011.2
20260508072404 43 250 0.0 0.0 0.00 0.00 0.00 85 1011.3
20260508071905 43 250 0.0 0.0 0.00 0.00 0.00 85 1011.2
20260508071405 43 250 0.0 0.0 0.00 0.00 0.00 85 1011.2
20260508070904 43 250 0.0 0.0 0.00 0.00 0.00 85 1011.2
20260508070404 42 250 0.0 0.0 0.00 0.00 0.00 84 1011.3
20260508065904 42 250 0.0 0.0 0.00 0.00 0.00 84 1011.4
20260508065406 42 250 0.0 0.0 0.00 0.00 0.00 84 1011.4
20260508064905 42 250 0.0 0.0 0.00 0.00 0.00 84 1011.4
20260508064404 42 250 0.0 0.0 0.00 0.00 0.00 83 1011.4
20260508063904 42 250 0.0 0.0 0.00 0.00 0.00 82 1011.4
20260508063404 42 250 0.0 0.0 0.00 0.00 0.00 83 1011.5
20260508062904 42 250 0.0 0.0 0.00 0.00 0.00 83 1011.5
20260508062405 42 250 0.0 0.0 0.00 0.00 0.00 83 1011.5
20260508061904 42 250 0.0 0.0 0.00 0.00 0.00 83 1011.6
20260508061404 42 250 0.0 0.0 0.00 0.00 0.00 82 1011.6
20260508060904 42 250 0.0 0.0 0.00 0.00 0.00 82 1011.6
20260508060405 41 250 0.0 0.0 0.00 0.00 0.00 82 1011.6
20260508055904 41 250 0.0 0.0 0.00 0.00 0.00 82 1011.8
20260508055404 41 250 0.0 0.0 0.00 0.00 0.00 82 1011.7
20260508054905 41 250 0.0 0.0 0.00 0.00 0.00 82 1011.8
20260508054404 41 250 0.0 0.0 0.00 0.00 0.00 82 1011.9
20260508053904 41 250 0.0 0.0 0.00 0.00 0.00 82 1012.0
20260508052904 41 250 0.0 0.0 0.00 0.00 0.00 81 1012.1
20260508051904 41 250 0.0 0.0 0.00 0.00 0.00 81 1012.3
20260508051404 41 250 0.0 0.0 0.00 0.00 0.00 81 1012.4
20260508050904 41 250 0.0 0.0 0.00 0.00 0.00 81 1012.3
20260508050404 41 250 0.0 0.0 0.00 0.00 0.00 82 1012.3
20260508045905 41 250 0.0 0.0 0.00 0.00 0.00 82 1012.2
20260508045404 41 250 0.0 0.0 0.00 0.00 0.00 82 1012.2
20260508044904 41 250 0.0 0.0 0.00 0.00 0.00 82 1012.2
20260508044405 41 250 0.0 0.0 0.00 0.00 0.00 81 1012.2
20260508043904 40 250 0.0 0.0 0.00 0.00 0.00 82 1012.2
20260508043404 40 250 0.0 0.0 0.00 0.00 0.00 82 1012.1
20260508042904 40 250 0.0 0.0 0.00 0.00 0.00 81 1012.1
20260508042405 40 250 0.0 0.0 0.00 0.00 0.00 81 1012.1
20260508035905 40 250 0.0 0.0 0.00 0.00 0.00 80 1012.2
20260508035404 40 250 0.0 0.0 0.00 0.00 0.00 79 1012.2
20260508034904 40 250 0.0 0.0 0.00 0.00 0.00 79 1012.1
20260508033905 40 250 0.0 0.0 0.00 0.00 0.00 78 1012.0
20260508033404 40 250 0.0 0.0 0.00 0.00 0.00 78 1012.1
20260508032904 41 250 0.0 0.0 0.00 0.00 0.00 77 1012.0
20260508032404 41 250 0.0 0.0 0.00 0.00 0.00 77 1012.0
20260508031905 41 250 0.0 0.0 0.00 0.00 0.00 75 1012.0
20260508031404 41 250 0.0 0.0 0.00 0.00 0.00 76 1012.0
20260508030905 41 250 0.0 0.0 0.00 0.00 0.00 74 1012.0
20260508030405 41 250 0.0 0.0 0.00 0.00 0.00 75 1012.0
20260508025904 42 250 0.0 0.0 0.00 0.00 0.00 73 1012.0
20260508025407 42 250 0.0 0.0 0.00 0.00 0.00 73 1012.1
20260508024404 42 250 0.0 0.0 0.00 0.00 0.00 72 1012.1
20260508023904 42 250 0.0 0.0 0.00 0.00 0.00 72 1012.1
20260508023405 43 250 0.0 0.0 0.00 0.00 0.00 71 1012.1
20260508022904 43 250 0.0 0.0 0.00 0.00 0.00 71 1012.0